Location: Auckland
(36.8670°S, 174.7670°E)
Time: 23:48:26
(UTC+13:00)

USA 186 - Pass Details

Date: 24 January 2019
Orbit: 262 x 443 km, 96.9° (Epoch: 04 October)

Event Time Altitude Azimuth Distance (km) Brightness Sun altitude
Rises 21:24:57 0° 162° (SSE) 2,236 5.6 -9.0°
Reaches altitude 10° 21:27:03 10° 153° (SSE) 1,347 4.4 -9.4°
Maximum altitude 21:29:45 39° 82° (E) 538 1.8 -9.8°
Drops below altitude 10° 21:32:16 10° 11° (N) 1,247 3.7 -10.3°
Enters shadow 21:32:28 - 9° (N) 1,331 3.9 -10.3°
